DRK401 VNKT-VQPR

Flight info

Callsign DRK401
Flight time 0h 48m
Altitude 37000
Route IGRIS1D KIMTI G348 SUBSU DCT TAKTI DCT PR777 DCT
Aircraft A319/M-SDE3FGHIRWY/LB1

Departure

Time 2026-05-09 02:48
Airport Tribhuvan International Airport (VNKT)

Arrival

Time 2026-05-09 03:36
Airport Paro International Airport (VQPR)
Time Latitude Longitude Altitude Speed Heading
2026-05-09 02:35 27.69879 85.35782 4398 ft 0 kts 292°
2026-05-09 02:37 27.69875 85.35792 4398 ft 2 kts 292°
2026-05-09 02:37 27.69870 85.35808 4398 ft 2 kts 292°
2026-05-09 02:37 27.69864 85.35823 4398 ft 2 kts 292°
2026-05-09 02:38 27.69858 85.35839 4397 ft 2 kts 292°
2026-05-09 02:38 27.69853 85.35854 4397 ft 2 kts 287°
2026-05-09 02:38 27.69850 85.35871 4397 ft 2 kts 255°
2026-05-09 02:38 27.69856 85.35887 4397 ft 2 kts 209°
2026-05-09 02:39 27.69862 85.35890 4397 ft 0 kts 202°
2026-05-09 02:40 27.69861 85.35890 4397 ft 0 kts 202°
2026-05-09 02:41 27.69854 85.35886 4397 ft 2 kts 202°
2026-05-09 02:41 27.69838 85.35879 4397 ft 3 kts 202°
2026-05-09 02:41 27.69814 85.35868 4397 ft 4 kts 202°
2026-05-09 02:41 27.69780 85.35852 4397 ft 6 kts 202°
2026-05-09 02:42 27.69738 85.35833 4397 ft 7 kts 202°
2026-05-09 02:42 27.69688 85.35810 4398 ft 8 kts 202°
2026-05-09 02:42 27.69633 85.35784 4398 ft 9 kts 202°
2026-05-09 02:42 27.69573 85.35756 4398 ft 9 kts 202°
2026-05-09 02:43 27.69507 85.35727 4397 ft 11 kts 202°
2026-05-09 02:43 27.69430 85.35692 4395 ft 13 kts 202°
2026-05-09 02:43 27.69344 85.35653 4394 ft 14 kts 202°
2026-05-09 02:43 27.69253 85.35611 4393 ft 15 kts 202°
2026-05-09 02:44 27.69157 85.35568 4388 ft 12 kts 202°
2026-05-09 02:44 27.69078 85.35566 4390 ft 11 kts 140°
2026-05-09 02:44 27.69025 85.35618 4391 ft 10 kts 171°
2026-05-09 02:44 27.68960 85.35596 4392 ft 10 kts 202°
2026-05-09 02:45 27.68892 85.35564 4392 ft 11 kts 202°
2026-05-09 02:45 27.68814 85.35528 4391 ft 13 kts 202°
2026-05-09 02:45 27.68723 85.35486 4390 ft 15 kts 202°
2026-05-09 02:45 27.68629 85.35443 4393 ft 14 kts 201°
2026-05-09 02:46 27.68541 85.35405 4395 ft 13 kts 201°
2026-05-09 02:46 27.68461 85.35354 4396 ft 14 kts 231°
2026-05-09 02:46 27.68416 85.35317 4397 ft 7 kts 157°
2026-05-09 02:46 27.68421 85.35353 4397 ft 6 kts 29°
2026-05-09 02:47 27.68461 85.35369 4396 ft 0 kts 20°
2026-05-09 02:47 27.68462 85.35370 4396 ft 1 kts 20°
2026-05-09 02:47 27.68549 85.35409 4395 ft 43 kts 21°
2026-05-09 02:47 27.69059 85.35642 4392 ft 112 kts 22°
2026-05-09 02:48 27.69958 85.36049 4399 ft 164 kts 22°
2026-05-09 02:48 27.71028 85.36507 4948 ft 161 kts 20°
2026-05-09 02:48 27.72073 85.36976 5547 ft 163 kts 24°
2026-05-09 02:48 27.73044 85.37750 5868 ft 183 kts 46°
2026-05-09 02:49 27.73784 85.39014 6136 ft 205 kts 68°
2026-05-09 02:49 27.74062 85.40685 6399 ft 231 kts 90°
2026-05-09 02:49 27.74040 85.42552 6993 ft 242 kts 92°
2026-05-09 02:49 27.73662 85.44412 7769 ft 247 kts 115°
2026-05-09 02:50 27.72634 85.45962 8621 ft 250 kts 139°
2026-05-09 02:50 27.71128 85.46953 9495 ft 254 kts 156°
2026-05-09 02:50 27.69424 85.47760 9936 ft 277 kts 156°
2026-05-09 02:50 27.67608 85.48662 10480 ft 290 kts 152°
2026-05-09 02:51 27.65888 85.49929 11296 ft 294 kts 140°
2026-05-09 02:51 27.64455 85.51555 12105 ft 298 kts 128°
2026-05-09 02:51 27.63331 85.53534 12925 ft 302 kts 116°
2026-05-09 02:51 27.62586 85.55767 13719 ft 307 kts 106°
2026-05-09 02:52 27.61982 85.58093 14430 ft 311 kts 107°
2026-05-09 02:52 27.61363 85.60439 15105 ft 314 kts 107°
2026-05-09 02:52 27.60730 85.62821 15749 ft 320 kts 107°
2026-05-09 02:52 27.60066 85.65302 15906 ft 342 kts 107°
2026-05-09 02:53 27.59358 85.67926 16191 ft 357 kts 108°
2026-05-09 02:53 27.58491 85.70574 16725 ft 363 kts 109°
2026-05-09 02:53 27.57874 85.73357 17310 ft 368 kts 102°
2026-05-09 02:53 27.57409 85.76213 17905 ft 373 kts 100°
2026-05-09 02:54 27.57001 85.79118 18485 ft 378 kts 99°
2026-05-09 02:54 27.56602 85.82059 19002 ft 381 kts 99°
2026-05-09 02:54 27.56193 85.85023 19550 ft 385 kts 99°
2026-05-09 02:54 27.55759 85.88013 20104 ft 388 kts 99°
2026-05-09 02:55 27.55303 85.91025 20666 ft 392 kts 100°
2026-05-09 02:55 27.54830 85.94060 21230 ft 395 kts 100°
2026-05-09 02:55 27.54347 85.97115 21775 ft 398 kts 100°
2026-05-09 02:55 27.53857 86.00198 22336 ft 401 kts 100°
2026-05-09 02:56 27.53363 86.03307 22864 ft 405 kts 100°
2026-05-09 02:56 27.52867 86.06447 23410 ft 408 kts 100°
2026-05-09 02:56 27.52369 86.09608 23901 ft 411 kts 100°
2026-05-09 02:56 27.51871 86.12795 24339 ft 415 kts 100°
2026-05-09 02:57 27.51368 86.16006 24767 ft 418 kts 100°
2026-05-09 02:57 27.50860 86.19244 25197 ft 421 kts 100°
2026-05-09 02:57 27.50347 86.22496 25608 ft 424 kts 100°
2026-05-09 02:57 27.49828 86.25779 26009 ft 427 kts 100°
2026-05-09 02:58 27.49284 86.29071 26400 ft 430 kts 102°
2026-05-09 02:58 27.48676 86.32388 26807 ft 433 kts 102°
2026-05-09 02:58 27.48028 86.35708 27191 ft 436 kts 103°
2026-05-09 02:58 27.47360 86.39049 27557 ft 439 kts 103°
2026-05-09 02:59 27.46685 86.42422 27914 ft 443 kts 103°
2026-05-09 02:59 27.46013 86.45822 28290 ft 446 kts 103°
2026-05-09 02:59 27.45347 86.49236 28669 ft 449 kts 103°
2026-05-09 02:59 27.44682 86.52689 29039 ft 452 kts 103°
2026-05-09 03:00 27.44024 86.56126 29394 ft 456 kts 103°
2026-05-09 03:00 27.43353 86.59627 29763 ft 459 kts 103°
2026-05-09 03:00 27.42675 86.63153 30106 ft 463 kts 103°
2026-05-09 03:00 27.41991 86.66702 30405 ft 466 kts 103°
2026-05-09 03:01 27.41300 86.70269 30657 ft 469 kts 104°
2026-05-09 03:01 27.40596 86.73879 30931 ft 473 kts 104°
2026-05-09 03:01 27.39887 86.77502 31163 ft 476 kts 104°
2026-05-09 03:01 27.39172 86.81156 31421 ft 480 kts 104°
2026-05-09 03:02 27.38453 86.84835 31672 ft 483 kts 104°
2026-05-09 03:02 27.37730 86.88541 31900 ft 487 kts 105°
2026-05-09 03:02 27.37004 86.92262 32265 ft 487 kts 105°
2026-05-09 03:02 27.36276 86.95989 32586 ft 489 kts 105°
2026-05-09 03:03 27.35543 86.99725 32881 ft 489 kts 105°
2026-05-09 03:03 27.34807 87.03459 33179 ft 491 kts 106°
2026-05-09 03:03 27.34066 87.07223 33538 ft 492 kts 106°
2026-05-09 03:03 27.33325 87.10984 33909 ft 493 kts 106°
2026-05-09 03:04 27.32584 87.14753 34242 ft 494 kts 106°
2026-05-09 03:04 27.31679 87.18457 34507 ft 490 kts 115°
2026-05-09 03:04 27.30294 87.21924 34736 ft 484 kts 124°
2026-05-09 03:04 27.28552 87.25143 34959 ft 482 kts 128°
2026-05-09 03:05 27.26779 87.28347 35199 ft 482 kts 128°
2026-05-09 03:05 27.25009 87.31553 35457 ft 483 kts 128°
2026-05-09 03:05 27.23241 87.34758 35744 ft 481 kts 128°
2026-05-09 03:05 27.21480 87.37955 35996 ft 481 kts 129°
2026-05-09 03:06 27.19718 87.41153 36166 ft 483 kts 129°
2026-05-09 03:06 27.17946 87.44363 36433 ft 483 kts 129°
2026-05-09 03:06 27.16179 87.47565 36629 ft 483 kts 129°
2026-05-09 03:06 27.14407 87.50774 36843 ft 484 kts 129°
2026-05-09 03:07 27.12631 87.53983 37029 ft 484 kts 129°
2026-05-09 03:07 27.09090 87.60371 37086 ft 480 kts 130°
2026-05-09 03:08 27.05560 87.66729 37077 ft 480 kts 130°
2026-05-09 03:08 27.02029 87.73072 37077 ft 479 kts 130°
2026-05-09 03:09 26.98499 87.79413 37066 ft 480 kts 130°
2026-05-09 03:09 26.95558 87.84687 37056 ft 480 kts 130°
2026-05-09 03:10 26.92012 87.91045 37052 ft 481 kts 130°
2026-05-09 03:10 26.88470 87.97397 37047 ft 481 kts 130°
2026-05-09 03:10 26.86693 88.00571 36871 ft 480 kts 130°
2026-05-09 03:11 26.84920 88.03734 36606 ft 479 kts 130°
2026-05-09 03:11 26.83149 88.06890 36296 ft 479 kts 130°
2026-05-09 03:11 26.81376 88.10050 35914 ft 480 kts 130°
2026-05-09 03:11 26.79598 88.13222 35556 ft 480 kts 130°
2026-05-09 03:12 26.77823 88.16384 35173 ft 479 kts 129°
2026-05-09 03:12 26.76053 88.19539 34802 ft 478 kts 129°
2026-05-09 03:12 26.74305 88.22684 34400 ft 475 kts 129°
2026-05-09 03:12 26.72771 88.25931 33973 ft 480 kts 117°
2026-05-09 03:13 26.71617 88.33309 32961 ft 489 kts 90°
2026-05-09 03:13 26.72109 88.37068 32444 ft 490 kts 76°
2026-05-09 03:13 26.73303 88.40620 31987 ft 489 kts 63°
2026-05-09 03:14 26.75026 88.43893 31516 ft 488 kts 58°
2026-05-09 03:14 26.76803 88.47123 31076 ft 485 kts 58°
2026-05-09 03:14 26.78561 88.50324 30636 ft 481 kts 58°
2026-05-09 03:14 26.80296 88.53498 30204 ft 476 kts 58°
2026-05-09 03:15 26.82014 88.56653 29699 ft 472 kts 59°
2026-05-09 03:15 26.83714 88.59775 29170 ft 468 kts 59°
2026-05-09 03:15 26.85399 88.62872 28647 ft 464 kts 59°
2026-05-09 03:15 26.87074 88.65947 28139 ft 460 kts 59°
2026-05-09 03:16 26.88731 88.68991 27643 ft 456 kts 59°
2026-05-09 03:16 26.90378 88.72015 27152 ft 453 kts 58°
2026-05-09 03:16 26.92013 88.75013 26667 ft 449 kts 58°
2026-05-09 03:16 26.93640 88.77991 26190 ft 446 kts 58°
2026-05-09 03:17 26.95250 88.80952 25710 ft 443 kts 58°
2026-05-09 03:17 26.96844 88.83898 25258 ft 440 kts 59°
2026-05-09 03:17 26.98148 88.86987 24799 ft 437 kts 71°
2026-05-09 03:17 26.98903 88.90270 24348 ft 433 kts 80°
2026-05-09 03:18 26.99496 88.93570 23909 ft 432 kts 80°
2026-05-09 03:18 27.00092 88.96870 23432 ft 430 kts 79°
2026-05-09 03:18 27.00686 89.00147 22910 ft 429 kts 79°
2026-05-09 03:18 27.01277 89.03416 22396 ft 427 kts 79°
2026-05-09 03:19 27.01866 89.06672 21890 ft 425 kts 79°
2026-05-09 03:19 27.02451 89.09901 21386 ft 418 kts 79°
2026-05-09 03:19 27.03023 89.13062 20912 ft 410 kts 79°
2026-05-09 03:19 27.03583 89.16161 20487 ft 401 kts 79°
2026-05-09 03:20 27.04134 89.19197 20064 ft 392 kts 79°
2026-05-09 03:20 27.04669 89.22163 19633 ft 382 kts 79°
2026-05-09 03:20 27.05183 89.25032 19314 ft 368 kts 79°
2026-05-09 03:20 27.05676 89.27789 19035 ft 353 kts 80°
2026-05-09 03:21 27.06149 89.30442 18771 ft 340 kts 80°
2026-05-09 03:21 27.06604 89.32996 18505 ft 328 kts 80°
2026-05-09 03:21 27.07042 89.35445 18216 ft 314 kts 80°
2026-05-09 03:21 27.07463 89.37805 17907 ft 302 kts 79°
2026-05-09 03:22 27.07868 89.40068 17616 ft 291 kts 80°
2026-05-09 03:22 27.08252 89.42217 17417 ft 277 kts 80°
2026-05-09 03:22 27.08622 89.44301 17336 ft 260 kts 80°
2026-05-09 03:22 27.08968 89.46257 17090 ft 253 kts 80°
2026-05-09 03:23 27.09307 89.48185 16777 ft 250 kts 80°
2026-05-09 03:23 27.09640 89.50066 16395 ft 248 kts 80°
2026-05-09 03:23 27.09974 89.51962 16050 ft 247 kts 80°
2026-05-09 03:23 27.10305 89.53840 16016 ft 246 kts 79°
2026-05-09 03:24 27.10639 89.55726 16008 ft 246 kts 80°
2026-05-09 03:24 27.10814 89.57626 15986 ft 245 kts 98°
2026-05-09 03:24 27.10216 89.59375 15997 ft 241 kts 127°
2026-05-09 03:24 27.08958 89.60571 15978 ft 237 kts 156°
2026-05-09 03:25 27.07379 89.61019 15983 ft 235 kts 174°
2026-05-09 03:25 27.05759 89.61239 15968 ft 234 kts 175°
2026-05-09 03:25 27.04141 89.61435 15959 ft 234 kts 176°
2026-05-09 03:25 27.02519 89.61625 15957 ft 234 kts 176°
2026-05-09 03:26 27.00896 89.61815 15954 ft 234 kts 176°
2026-05-09 03:26 26.99293 89.61651 15941 ft 232 kts 200°
2026-05-09 03:26 26.97935 89.60712 15942 ft 231 kts 225°
2026-05-09 03:26 26.97102 89.59191 15937 ft 232 kts 251°
2026-05-09 03:27 26.96972 89.57398 15955 ft 234 kts 277°
2026-05-09 03:27 26.97588 89.55711 15940 ft 238 kts 304°
2026-05-09 03:27 26.98852 89.54515 15945 ft 242 kts 332°
2026-05-09 03:27 27.00483 89.54058 15960 ft 245 kts 351°
2026-05-09 03:28 27.02177 89.53834 15962 ft 245 kts 352°
2026-05-09 03:28 27.03878 89.53631 15962 ft 245 kts 353°
2026-05-09 03:28 27.05569 89.53434 15965 ft 244 kts 352°
2026-05-09 03:28 27.07252 89.53238 15979 ft 241 kts 353°
2026-05-09 03:29 27.08912 89.53038 15922 ft 239 kts 353°
2026-05-09 03:29 27.10560 89.52837 15877 ft 238 kts 352°
2026-05-09 03:29 27.12202 89.52641 15441 ft 237 kts 353°
2026-05-09 03:29 27.13835 89.52452 14899 ft 234 kts 354°
2026-05-09 03:30 27.15436 89.52268 14415 ft 227 kts 354°
2026-05-09 03:30 27.16948 89.52092 13937 ft 211 kts 355°
2026-05-09 03:30 27.18363 89.51927 13453 ft 198 kts 355°
2026-05-09 03:30 27.19696 89.51771 13036 ft 187 kts 355°
2026-05-09 03:31 27.20964 89.51624 12646 ft 181 kts 355°
2026-05-09 03:31 27.22208 89.51600 12279 ft 178 kts
2026-05-09 03:31 27.23427 89.51766 12106 ft 175 kts 12°
2026-05-09 03:31 27.24610 89.52112 12080 ft 176 kts 19°
2026-05-09 03:32 27.25749 89.52628 12046 ft 176 kts 26°
2026-05-09 03:32 27.26833 89.53265 11999 ft 176 kts 29°
2026-05-09 03:32 27.27917 89.53906 11792 ft 178 kts 29°
2026-05-09 03:32 27.29097 89.54354 11243 ft 182 kts
2026-05-09 03:33 27.30361 89.54294 10686 ft 184 kts 348°
2026-05-09 03:33 27.31534 89.53713 10188 ft 186 kts 327°
2026-05-09 03:33 27.32438 89.52692 9622 ft 185 kts 305°
2026-05-09 03:33 27.32949 89.51370 8970 ft 185 kts 283°
2026-05-09 03:34 27.33005 89.49931 8393 ft 186 kts 263°
2026-05-09 03:34 27.32992 89.48490 7746 ft 182 kts 277°
2026-05-09 03:34 27.33603 89.47483 7783 ft 156 kts 330°
2026-05-09 03:34 27.34598 89.46925 7753 ft 162 kts 328°
2026-05-09 03:35 27.35600 89.46361 7906 ft 163 kts 338°
2026-05-09 03:35 27.36680 89.45959 7974 ft 163 kts 342°
2026-05-09 03:35 27.37634 89.45284 8054 ft 168 kts 310°
2026-05-09 03:35 27.38224 89.44139 7671 ft 170 kts 300°
2026-05-09 03:36 27.39037 89.43298 7421 ft 161 kts 330°
2026-05-09 03:36 27.39997 89.42683 7332 ft 143 kts 331°
2026-05-09 03:36 27.40566 89.42316 7352 ft 37 kts 331°
2026-05-09 03:36 27.40673 89.42249 7357 ft 10 kts 329°
2026-05-09 03:37 27.40681 89.42190 7359 ft 3 kts 242°
2026-05-09 03:37 27.40671 89.42173 7357 ft 4 kts 235°
2026-05-09 03:37 27.40654 89.42149 7357 ft 4 kts 232°
2026-05-09 03:37 27.40637 89.42117 7358 ft 5 kts 240°
2026-05-09 03:38 27.40630 89.42104 7356 ft 0 kts 241°